Dutzow, MO

10:09 PM CST on February 13, 2016 (GMT -0600)
Washington

Weather History for KFYG - September, 2012

Change the Weather History Date:

Tuesday, September 4, 2012

  Actual Average (KSTL) Record (KSTL)
Temperature  
Mean Temperature 79 °F 75 °F  
Max Temperature 89 °F 85 °F 104 °F (1954)
Min Temperature 69 °F 66 °F 42 °F (1974)
Degree Days  
Heating Degree Days 0 0  
Month to date heating degree days 0  
Since 1 July heating degree days 1  
Cooling Degree Days 14 10  
Month to date cooling degree days 43  
Year to date cooling degree days 1442  
Growing Degree Days 29 (Base 50)    
Moisture  
Dew Point 72 °F    
Average Humidity 88    
Maximum Humidity 100    
Minimum Humidity 49    
Precipitation  
Precipitation 0.04 in 0.10 in 3.20 in (1885)
Month to date precipitation 0.41  
Year to date precipitation 28.16  
Snow  
Snow - 0.00 in 0.00 in (2013)
Month to date snowfall 0.0  
Since 1 July snowfall 0.0  
Since 1 September snowfall 0.0  
Snow Depth -    
Sea Level Pressure  
Sea Level Pressure 29.88 in    
Wind  
Wind Speed 1 mph ()    
Max Wind Speed 10 mph    
Max Gust Speed -    
Visibility 8.6 miles    
Events Rain    
T = Trace of Precipitation, MM = Missing Value Source: Averaged Metar Reports

Daily Weather History Graph

Daily Weather History Graph

Search for Another Location

Airport or City:

Trip Planner

Search our weather history database for the weather conditions in past years. The results will help you decide how hot, cold, wet, or windy it might be!

Date:

Astronomy

Sep. 04, 2012 Rise Set
Actual Time 6:36 AM CDT 7:28 PM CDT
Civil Twilight 6:09 AM CDT 7:55 PM CDT
Nautical Twilight 5:37 AM CDT 8:27 PM CDT
Astronomical Twilight 5:04 AM CDT 9:00 PM CDT
Moon 9:25 PM CDT (9/4) 10:39 AM CDT (9/4)
Length of Visible Light 13h 46m
Length of Day
12h 52m
Waning Gibbous, 83% of the Moon is Illuminated
Sep 4
Waning Gibbous
Sep 8
Last Quarter
Sep 15
New
Sep 22
First Quarter
Sep 29
Full

Hourly Weather History & Observations

Time (CDT) Temp. Heat Index Dew Point Humidity Pressure Visibility Wind Dir Wind Speed Gust Speed Precip Events Conditions
12:15 AM 71.6 °F - 71.6 °F 100% 29.90 in 9.0 mi Calm Calm - N/A   Clear
12:35 AM 71.6 °F - 71.6 °F 100% 29.91 in 7.0 mi Calm Calm - N/A   Clear
12:55 AM 71.6 °F - 71.6 °F 100% 29.90 in 7.0 mi Calm Calm - N/A   Clear
1:15 AM 71.6 °F - 71.6 °F 100% 29.90 in 6.0 mi Calm Calm - N/A   Clear
1:35 AM 71.6 °F - 71.6 °F 100% 29.90 in 7.0 mi Calm Calm - N/A   Clear
1:55 AM 71.6 °F - 71.6 °F 100% 29.91 in 5.0 mi Calm Calm - N/A   Clear
2:15 AM 69.8 °F - 69.8 °F 100% 29.91 in 6.0 mi Calm Calm - N/A   Clear
2:35 AM 69.8 °F - 69.8 °F 100% 29.91 in 5.0 mi Calm Calm - N/A   Clear
2:55 AM 69.8 °F - 69.8 °F 100% 29.92 in 6.0 mi Calm Calm - N/A   Clear
3:15 AM 71.6 °F - 71.6 °F 100% 29.91 in 7.0 mi Calm Calm - N/A   Clear
3:35 AM 71.6 °F - 71.6 °F 100% 29.90 in 7.0 mi Calm Calm - N/A   Clear
3:55 AM 71.6 °F - 71.6 °F 100% 29.89 in 7.0 mi Calm Calm - N/A   Clear
4:15 AM 71.6 °F - 71.6 °F 100% 29.88 in 4.0 mi Calm Calm - N/A   Clear
4:55 AM 71.6 °F - 71.6 °F 100% 29.87 in 3.0 mi Calm Calm - N/A   Clear
5:15 AM 71.6 °F - 71.6 °F 100% 29.87 in 5.0 mi Calm Calm - N/A   Clear
5:35 AM 71.6 °F - 71.6 °F 100% 29.86 in 9.0 mi Calm Calm - N/A   Clear
5:55 AM 71.6 °F - 71.6 °F 100% 29.88 in 6.0 mi Calm Calm - N/A   Clear
6:15 AM 69.8 °F - 69.8 °F 100% 29.89 in 5.0 mi Calm Calm - N/A   Clear
6:35 AM 71.6 °F - 71.6 °F 100% 29.91 in 5.0 mi Calm Calm - N/A   Mostly Cloudy
6:55 AM 71.6 °F - 71.6 °F 100% 29.93 in 5.0 mi Calm Calm - N/A   Partly Cloudy
7:15 AM 71.6 °F - 71.6 °F 100% 29.93 in 7.0 mi Calm Calm - N/A   Clear
7:35 AM 73.4 °F - 73.4 °F 100% 29.92 in 9.0 mi Calm Calm - N/A   Clear
7:55 AM 73.4 °F - 73.4 °F 100% 29.93 in 9.0 mi Calm Calm - N/A   Scattered Clouds
8:15 AM 73.4 °F - 73.4 °F 100% 29.93 in 10.0 mi Calm Calm - N/A   Mostly Cloudy
8:35 AM 73.4 °F - 73.4 °F 100% 29.93 in 10.0 mi NW 4.6 mph - N/A   Partly Cloudy
8:55 AM 73.4 °F - 73.4 °F 100% 29.94 in 10.0 mi Calm Calm - N/A Rain Light Rain
9:15 AM 73.4 °F - 73.4 °F 100% 29.93 in 10.0 mi Calm Calm - N/A   Scattered Clouds
9:35 AM 73.4 °F - 73.4 °F 100% 29.93 in 9.0 mi Calm Calm - N/A Rain Light Rain
9:55 AM 73.4 °F - 73.4 °F 100% 29.92 in 3.0 mi Calm Calm - 0.04 in Rain Light Rain
10:15 AM 73.4 °F - 73.4 °F 100% 29.90 in 5.0 mi Calm Calm - N/A   Clear
10:35 AM 73.4 °F - 73.4 °F 100% 29.93 in 6.0 mi North 10.4 mph - N/A Rain Light Rain
10:55 AM 75.2 °F - 73.4 °F 94% 29.91 in 10.0 mi SE 3.5 mph - N/A   Clear
11:15 AM 75.2 °F - 73.4 °F 94% 29.90 in 10.0 mi ESE 5.8 mph - N/A   Clear
11:35 AM 75.2 °F - 73.4 °F 94% 29.91 in 10.0 mi East 4.6 mph - N/A   Clear
11:55 AM 77.0 °F - 73.4 °F 89% 29.91 in 10.0 mi SE 5.8 mph - N/A   Clear
12:15 PM 77.0 °F - 71.6 °F 83% 29.91 in 10.0 mi SSE 3.5 mph - N/A   Clear
12:35 PM 77.0 °F - 71.6 °F 83% 29.91 in 10.0 mi Calm Calm - N/A   Clear
12:55 PM 78.8 °F - 71.6 °F 78% 29.88 in 10.0 mi ESE 5.8 mph - N/A   Clear
1:15 PM 78.8 °F - 71.6 °F 78% 29.88 in 10.0 mi SSE 8.1 mph - N/A   Clear
1:35 PM 78.8 °F - 71.6 °F 78% 29.85 in 10.0 mi SE 8.1 mph - N/A   Clear
1:55 PM 80.6 °F 84.6 °F 71.6 °F 74% 29.86 in 10.0 mi SE 5.8 mph - N/A   Clear
2:15 PM 82.4 °F 88.2 °F 73.4 °F 74% 29.87 in 10.0 mi South 6.9 mph - N/A   Clear
2:35 PM 84.2 °F 89.6 °F 71.6 °F 66% 29.87 in 10.0 mi Calm Calm - N/A   Clear
2:55 PM 84.2 °F 89.6 °F 71.6 °F 66% 29.86 in 10.0 mi Calm Calm - N/A   Clear
3:15 PM 84.2 °F 89.6 °F 71.6 °F 66% 29.86 in 10.0 mi Calm Calm - N/A   Clear
3:35 PM 86.0 °F 90.4 °F 69.8 °F 58% 29.86 in 10.0 mi Calm Calm - N/A   Clear
3:55 PM 86.0 °F 90.4 °F 69.8 °F 58% 29.86 in 10.0 mi Calm Calm - N/A   Clear
4:15 PM 87.8 °F 91.4 °F 68.0 °F 52% 29.86 in 10.0 mi Calm Calm - N/A   Clear
4:35 PM 87.8 °F 91.4 °F 68.0 °F 52% 29.85 in 10.0 mi Calm Calm - N/A   Clear
4:55 PM 87.8 °F 91.4 °F 68.0 °F 52% 29.85 in 10.0 mi Calm Calm - N/A   Clear
5:15 PM 89.6 °F 93.4 °F 68.0 °F 49% 29.85 in 10.0 mi Calm Calm - N/A   Clear
5:35 PM 87.8 °F 93.8 °F 71.6 °F 58% 29.85 in 10.0 mi Calm Calm - N/A   Clear
5:55 PM 86.0 °F 90.4 °F 69.8 °F 58% 29.85 in 10.0 mi Calm Calm - N/A   Clear
6:15 PM 82.4 °F 89.5 °F 75.2 °F 79% 29.85 in 10.0 mi Calm Calm - N/A   Clear
6:35 PM 80.6 °F 86.2 °F 75.2 °F 84% 29.84 in 10.0 mi Calm Calm - N/A   Clear
6:55 PM 82.4 °F 88.2 °F 73.4 °F 74% 29.84 in 10.0 mi Calm Calm - N/A   Clear
7:15 PM 80.6 °F 85.4 °F 73.4 °F 79% 29.83 in 10.0 mi Calm Calm - N/A   Clear
7:35 PM 78.8 °F - 71.6 °F 78% 29.83 in 10.0 mi Calm Calm - N/A   Clear
7:55 PM 77.0 °F - 71.6 °F 83% 29.83 in 10.0 mi Calm Calm - N/A   Clear
8:15 PM 77.0 °F - 73.4 °F 89% 29.83 in 10.0 mi Calm Calm - N/A   Clear
8:35 PM 75.2 °F - 71.6 °F 89% 29.83 in 10.0 mi Calm Calm - N/A   Clear
8:55 PM 75.2 °F - 71.6 °F 89% 29.83 in 10.0 mi Calm Calm - N/A   Clear
9:15 PM 75.2 °F - 71.6 °F 89% 29.83 in 10.0 mi Calm Calm - N/A   Clear
9:35 PM 73.4 °F - 71.6 °F 94% 29.83 in 10.0 mi Calm Calm - N/A   Clear
9:55 PM 73.4 °F - 71.6 °F 94% 29.83 in 10.0 mi Calm Calm - N/A   Clear
10:15 PM 73.4 °F - 71.6 °F 94% 29.83 in 10.0 mi Calm Calm - N/A   Clear
10:35 PM 73.4 °F - 71.6 °F 94% 29.84 in 10.0 mi Calm Calm - N/A   Clear
10:55 PM 71.6 °F - 71.6 °F 100% 29.84 in 10.0 mi Calm Calm - N/A   Clear
11:15 PM 73.4 °F - 71.6 °F 94% 29.84 in 10.0 mi Calm Calm - N/A   Clear
11:35 PM 71.6 °F - 71.6 °F 100% 29.83 in 10.0 mi Calm Calm - N/A   Clear
11:55 PM 71.6 °F - 71.6 °F 100% 29.82 in 10.0 mi Calm Calm - N/A   Clear